This is the latest recevied weather packets stored in our database for station/object OE5ERN-10. If no packets are shown the sender has not sent any weather packets the latest 10 day(s).
| Time | Temp. | Humidity | Pressure | Rain* | Wind** | Luminosity | Snow |
|---|---|---|---|---|---|---|---|
| 1777047055 | 21.67° C | 26% | 1020.1 hPa | 0 mm | - | - | - |
| 1777046155 | 21.11° C | 26% | 1020 hPa | 0 mm | - | - | - |
| 1777045255 | 21.11° C | 26% | 1020.1 hPa | 0 mm | - | - | - |
| 1777044355 | 21.67° C | 26% | 1019.9 hPa | 0 mm | - | - | - |
| 1777043455 | 21.67° C | 26% | 1020.1 hPa | 0 mm | - | - | - |
| 1777042555 | 21.67° C | 26% | 1020.1 hPa | 0 mm | - | - | - |
| 1777041655 | 21.67° C | 26% | 1020.4 hPa | 0 mm | - | - | - |
| 1777040755 | 21.67° C | 26% | 1020.3 hPa | 0 mm | - | - | - |
| 1777039855 | 21.67° C | 27% | 1020.3 hPa | 0 mm | - | - | - |
| 1777038955 | 21.67° C | 28% | 1020.6 hPa | 0 mm | - | - | - |
| 1777038055 | 22.22° C | 28% | 1020.6 hPa | 0 mm | - | - | - |
| 1777037155 | 21.67° C | 29% | 1020.7 hPa | 0 mm | - | - | - |
| 1777036255 | 22.22° C | 29% | 1021.1 hPa | 0 mm | - | - | - |
| 1777035355 | 21.67° C | 30% | 1021.1 hPa | 0 mm | - | - | - |
| 1777034455 | 21.67° C | 30% | 1021.3 hPa | 0 mm | - | - | - |
| 1777033555 | 22.22° C | 30% | 1021.5 hPa | 0 mm | - | - | - |
| 1777032655 | 21.67° C | 32% | 1021.8 hPa | 0 mm | - | - | - |
| 1777031755 | 21.67° C | 32% | 1022 hPa | 0 mm | - | - | - |
| 1777030855 | 21.11° C | 33% | 1022.1 hPa | 0 mm | - | - | - |
| 1777029955 | 21.11° C | 32% | 1022.3 hPa | 0 mm | - | - | - |
| 1777029055 | 21.11° C | 32% | 1022.3 hPa | 0 mm | - | - | - |
| 1777028155 | 20.56° C | 33% | 1022.4 hPa | 0 mm | - | - | - |
| 1777027255 | 21.11° C | 32% | 1022.6 hPa | 0 mm | - | - | - |
| 1777026355 | 21.67° C | 31% | 1022.7 hPa | 0 mm | - | - | - |
| 1777025455 | 23.89° C | 28% | 1023 hPa | 0 mm | - | - | - |
* Rain latest hour (hover to see other rain measurements)
** Current wind speed in m/s (hover to see current wind gust speed)